May 8 Mississippi and Alabama TAGA Results Above Detection Limit,,,,,
Date_Time,Benzene Avg. (ppb),Toluene Avg. (ppb),Xylene Avg. (ppb),Latitude,Longitude
5/8/2010 18:59:51,1.445,0.360,0.550,30.256633,-89.440630
5/8/2010 19:00:14,0.461,1.059,0.979,30.254549,-89.438976
5/8/2010 19:00:15,0.722,0.473,0.938,30.254464,-89.438909
5/8/2010 19:00:17,0.061,0.699,0.390,30.254294,-89.438772
5/8/2010 19:00:18,0.505,0.946,0.800,30.254208,-89.438704
5/8/2010 19:00:22,0.231,0.473,0.532,30.253862,-89.438428
5/8/2010 19:00:23,1.014,0.360,0.587,30.253774,-89.438359
5/8/2010 19:00:24,0.661,0.720,0.635,30.253687,-89.438290
5/8/2010 19:03:27,0.152,0.741,1.010,30.249027,-89.423366
5/8/2010 19:03:28,0.274,0.360,0.674,30.249100,-89.423320
5/8/2010 19:12:01,0.740,0.000,0.726,30.275876,-89.374624
5/8/2010 19:12:02,1.641,1.645,1.024,30.275943,-89.374567
5/8/2010 19:16:14,0.139,0.000,18.597,30.288186,-89.361195
5/8/2010 19:16:15,0.200,0.473,17.016,30.288213,-89.361151
5/8/2010 19:16:16,0.030,0.000,2.271,30.288240,-89.361107
5/8/2010 19:16:17,0.231,0.339,0.839,30.288267,-89.361063
5/8/2010 19:16:30,0.091,1.214,0.454,30.288548,-89.360538
5/8/2010 19:24:08,0.152,0.473,0.558,30.299716,-89.335070
5/8/2010 19:24:09,0.000,0.339,0.556,30.299753,-89.335026
5/8/2010 19:24:10,0.061,0.607,0.712,30.299789,-89.334981
5/8/2010 19:24:11,0.231,0.586,0.866,30.299826,-89.334936
5/8/2010 19:24:12,0.061,1.645,2.379,30.299861,-89.334893
5/8/2010 19:24:13,0.061,1.687,0.987,30.299895,-89.334852
5/8/2010 19:24:14,0.061,0.833,1.021,30.299929,-89.334811
5/8/2010 19:24:15,0.122,1.080,0.905,30.299963,-89.334769
5/8/2010 19:24:16,0.091,1.892,1.095,30.299997,-89.334728
5/8/2010 19:24:17,0.061,0.339,0.739,30.300031,-89.334686
5/8/2010 19:24:18,0.200,0.000,0.481,30.300067,-89.334642
5/8/2010 19:25:14,0.692,0.339,0.453,30.302026,-89.332089
5/8/2010 19:25:15,1.140,0.720,0.488,30.302082,-89.332029
5/8/2010 19:26:04,0.509,0.113,0.624,30.305492,-89.328874
5/8/2010 19:26:05,0.122,0.113,0.410,30.305573,-89.328813
5/8/2010 19:27:26,0.091,0.000,0.395,30.309425,-89.326280
5/8/2010 19:27:27,0.061,0.113,0.414,30.309466,-89.326253
5/8/2010 19:27:31,0.231,0.607,0.564,30.309648,-89.326127
5/8/2010 19:27:32,0.061,0.586,0.641,30.309700,-89.326088
5/8/2010 19:27:33,0.061,0.967,0.762,30.309751,-89.326048
5/8/2010 19:27:34,0.292,0.113,0.942,30.309807,-89.326014
5/8/2010 19:27:35,0.539,0.586,0.557,30.309857,-89.325973
5/8/2010 19:27:36,0.170,0.226,0.667,30.309906,-89.325933
5/8/2010 19:27:37,0.353,0.247,0.705,30.309952,-89.325896
5/8/2010 19:27:38,0.000,0.247,0.581,30.309996,-89.325862
5/8/2010 19:27:39,0.600,0.113,0.498,30.310035,-89.325831
5/8/2010 19:27:45,0.152,0.226,0.602,30.310179,-89.325723
5/8/2010 19:27:46,0.339,0.607,0.509,30.310195,-89.325711
5/8/2010 19:27:49,0.492,0.607,0.438,30.310243,-89.325677
5/8/2010 19:27:50,0.183,1.942,0.993,30.310259,-89.325665
5/8/2010 19:27:51,0.353,1.101,0.702,30.310281,-89.325649
5/8/2010 19:27:54,0.200,0.699,0.447,30.310371,-89.325583
5/8/2010 19:27:55,0.644,0.946,1.047,30.310410,-89.325555
5/8/2010 19:27:56,0.213,0.946,0.558,30.310451,-89.325526
5/8/2010 19:28:03,0.122,0.000,0.495,30.310840,-89.325252
5/8/2010 19:28:08,0.200,0.473,0.740,30.311197,-89.325017
5/8/2010 19:28:31,0.322,0.247,1.008,30.313336,-89.323897
5/8/2010 19:28:32,0.753,0.946,1.483,30.313440,-89.323875
5/8/2010 19:28:33,1.170,1.440,1.265,30.313541,-89.323855
5/8/2010 19:28:34,0.213,0.473,0.406,30.313641,-89.323836
5/8/2010 19:29:41,0.061,0.946,0.396,30.319349,-89.323134
5/8/2010 19:29:55,0.570,0.925,0.415,30.319242,-89.321412
5/8/2010 19:32:30,0.122,1.235,0.403,30.312022,-89.286876
5/8/2010 19:32:33,0.292,0.720,0.705,30.311434,-89.286829
5/8/2010 19:32:34,0.539,0.833,0.690,30.311237,-89.286816
5/8/2010 19:32:35,0.231,0.699,0.681,30.311040,-89.286804
5/8/2010 19:32:36,0.152,0.720,0.433,30.310844,-89.286791
5/8/2010 19:32:40,0.030,0.247,0.621,30.310055,-89.286735
5/8/2010 19:32:41,0.152,1.017,1.359,30.309856,-89.286718
5/8/2010 19:32:42,0.353,2.653,1.484,30.309655,-89.286701
5/8/2010 19:32:43,0.305,2.971,1.711,30.309454,-89.286681
5/8/2010 19:32:44,0.339,0.452,1.645,30.309252,-89.286654
5/8/2010 19:32:45,0.231,0.791,2.558,30.309050,-89.286620
5/8/2010 19:32:46,0.475,1.820,2.862,30.308846,-89.286577
5/8/2010 19:32:47,0.553,2.879,2.928,30.308642,-89.286524
5/8/2010 19:32:48,0.461,0.812,1.063,30.308438,-89.286460
5/8/2010 19:32:49,0.030,0.473,0.471,30.308234,-89.286387
5/8/2010 19:34:32,0.030,0.226,0.404,30.308138,-89.265924
5/8/2010 19:36:52,0.309,0.360,0.419,30.316610,-89.239310
5/8/2010 19:36:53,0.061,0.360,0.761,30.316664,-89.239098
5/8/2010 19:37:35,0.152,0.226,0.492,30.319669,-89.229960
5/8/2010 19:37:38,0.200,0.226,0.637,30.319920,-89.229304
5/8/2010 19:37:39,0.091,0.699,1.113,30.320003,-89.229082
5/8/2010 19:37:40,0.261,0.339,0.456,30.320087,-89.228859
5/8/2010 19:37:44,0.261,0.339,0.461,30.320430,-89.227970
5/8/2010 19:37:45,0.370,0.854,0.578,30.320516,-89.227748
5/8/2010 19:40:49,0.353,0.678,0.543,30.331749,-89.188042
5/8/2010 19:40:50,0.122,0.000,0.391,30.331776,-89.187836
5/8/2010 19:40:59,0.492,1.059,0.402,30.332090,-89.185994
5/8/2010 19:41:16,0.030,0.247,0.444,30.332735,-89.182580
5/8/2010 19:41:17,0.000,0.000,1.150,30.332774,-89.182378
5/8/2010 19:41:18,0.139,0.607,0.495,30.332814,-89.182177
5/8/2010 19:42:44,0.353,0.339,0.533,30.339568,-89.165239
5/8/2010 19:43:04,0.675,1.645,2.805,30.340951,-89.161174
5/8/2010 19:43:05,2.224,2.343,5.088,30.341028,-89.160975
5/8/2010 19:43:06,5.070,5.562,7.580,30.341105,-89.160777
5/8/2010 19:43:07,5.758,7.164,8.223,30.341181,-89.160578
5/8/2010 19:43:08,5.876,5.323,7.790,30.341257,-89.160380
5/8/2010 19:43:09,6.002,6.373,7.934,30.341332,-89.160184
5/8/2010 19:43:10,5.758,5.880,8.609,30.341405,-89.159994
5/8/2010 19:43:11,6.049,3.494,8.349,30.341477,-89.159807
5/8/2010 19:43:12,4.822,4.758,8.096,30.341549,-89.159621
5/8/2010 19:43:13,5.110,6.507,8.567,30.341620,-89.159436
5/8/2010 19:43:14,4.740,7.001,8.043,30.341685,-89.159257
5/8/2010 19:43:15,4.583,7.227,8.139,30.341745,-89.159083
5/8/2010 19:43:16,5.740,4.511,8.538,30.341800,-89.158914
5/8/2010 19:43:17,6.863,5.725,9.010,30.341851,-89.158746
5/8/2010 19:43:18,6.028,5.921,8.679,30.341899,-89.158587
5/8/2010 19:43:19,5.575,5.365,9.183,30.341942,-89.158441
5/8/2010 19:43:20,5.079,4.327,9.242,30.341980,-89.158310
5/8/2010 19:43:21,6.450,6.290,9.434,30.342010,-89.158196
5/8/2010 19:43:22,6.802,8.470,9.234,30.342031,-89.158099
5/8/2010 19:43:23,5.275,7.658,9.274,30.342046,-89.158021
5/8/2010 19:43:24,7.227,7.198,9.713,30.342056,-89.157961
5/8/2010 19:43:25,6.459,7.976,9.123,30.342065,-89.157914
5/8/2010 19:43:26,5.897,4.913,9.725,30.342075,-89.157878
5/8/2010 19:43:27,6.367,5.089,9.632,30.342084,-89.157848
5/8/2010 19:43:28,5.927,6.064,9.398,30.342092,-89.157825
5/8/2010 19:43:29,6.236,5.859,9.604,30.342100,-89.157807
5/8/2010 19:43:30,6.097,6.620,9.503,30.342107,-89.157798
5/8/2010 19:43:31,5.510,5.930,9.564,30.342109,-89.157795
5/8/2010 19:43:32,7.080,9.458,9.781,30.342109,-89.157795
5/8/2010 19:43:33,5.624,5.386,9.882,30.342109,-89.157795
5/8/2010 19:43:34,6.589,4.285,9.738,30.342109,-89.157795
5/8/2010 19:43:35,5.679,7.792,10.143,30.342109,-89.157795
5/8/2010 19:43:36,7.420,6.373,9.739,30.342109,-89.157795
5/8/2010 19:43:37,5.984,7.022,9.891,30.342109,-89.157795
5/8/2010 19:43:38,7.163,7.855,9.597,30.342109,-89.157795
5/8/2010 19:43:39,5.188,5.930,10.122,30.342109,-89.157795
5/8/2010 19:43:40,6.503,6.783,9.678,30.342109,-89.157795
5/8/2010 19:43:41,6.167,6.629,9.781,30.342109,-89.157795
5/8/2010 19:43:42,6.023,7.156,10.188,30.342109,-89.157795
5/8/2010 19:43:43,6.328,8.018,9.584,30.342109,-89.157795
5/8/2010 19:43:44,6.703,8.738,10.025,30.342109,-89.157795
5/8/2010 19:43:45,6.177,6.537,10.437,30.342109,-89.157795
5/8/2010 19:43:46,7.471,8.286,10.567,30.342109,-89.157795
5/8/2010 19:43:47,7.681,7.750,10.001,30.342109,-89.157795
5/8/2010 19:43:48,6.941,5.336,9.941,30.342109,-89.157795
5/8/2010 19:43:49,6.764,7.813,10.065,30.342109,-89.157795
5/8/2010 19:43:50,6.389,7.411,10.165,30.342109,-89.157795
5/8/2010 19:43:51,5.967,7.001,9.816,30.342109,-89.157795
5/8/2010 19:43:52,9.059,8.893,10.085,30.342109,-89.157795
5/8/2010 19:43:53,5.645,8.173,10.395,30.342109,-89.157795
5/8/2010 19:43:54,6.632,7.177,9.995,30.342109,-89.157795
5/8/2010 19:43:55,7.071,6.352,9.949,30.342109,-89.157795
5/8/2010 19:43:57,7.019,5.880,10.376,30.342109,-89.157795
5/8/2010 19:43:58,6.888,6.219,10.255,30.342109,-89.157795
5/8/2010 19:43:59,6.267,6.763,10.060,30.342109,-89.157795
5/8/2010 19:44:00,8.807,6.867,10.134,30.342109,-89.157795
5/8/2010 19:44:01,5.910,7.637,9.986,30.342109,-89.157795
5/8/2010 19:44:02,5.645,4.553,10.305,30.342109,-89.157795
5/8/2010 19:44:03,6.381,7.093,10.312,30.342109,-89.157795
5/8/2010 19:44:04,8.446,6.198,10.190,30.342109,-89.157795
5/8/2010 19:44:05,5.750,7.516,10.171,30.342109,-89.157795
5/8/2010 19:44:06,7.254,5.365,10.159,30.342109,-89.157795
5/8/2010 19:44:07,6.328,7.721,10.495,30.342109,-89.157795
5/8/2010 19:44:08,5.954,7.214,10.069,30.342109,-89.157795
5/8/2010 19:44:09,5.733,6.846,10.233,30.342109,-89.157795
5/8/2010 19:44:10,6.537,6.085,10.594,30.342109,-89.157795
5/8/2010 19:44:11,7.707,5.901,10.907,30.342109,-89.157795
5/8/2010 19:44:12,8.624,6.846,10.219,30.342109,-89.157795
5/8/2010 19:44:13,5.662,7.997,10.330,30.342109,-89.157795
5/8/2010 19:44:14,6.955,7.871,10.662,30.342109,-89.157795
5/8/2010 19:44:15,6.006,8.399,11.142,30.342109,-89.157795
5/8/2010 19:44:16,6.066,6.168,10.000,30.342109,-89.157795
5/8/2010 19:44:17,8.182,5.357,9.845,30.342109,-89.157795
5/8/2010 19:44:18,7.128,6.168,10.197,30.342109,-89.157795
5/8/2010 19:44:19,6.819,10.403,9.775,30.342109,-89.157795
5/8/2010 19:44:20,6.671,6.662,10.370,30.342109,-89.157795
5/8/2010 19:44:21,6.358,6.260,10.664,30.342109,-89.157795
5/8/2010 19:44:22,7.528,7.361,9.568,30.342109,-89.157795
5/8/2010 19:44:23,8.634,7.679,10.369,30.342109,-89.157795
5/8/2010 19:44:24,5.658,4.101,9.822,30.342109,-89.157795
5/8/2010 19:44:25,6.754,6.817,10.417,30.342109,-89.157795
5/8/2010 19:44:26,7.403,6.415,10.087,30.342109,-89.157795
5/8/2010 19:44:27,5.597,6.394,9.496,30.342109,-89.157795
5/8/2010 19:44:28,6.876,7.834,10.079,30.342109,-89.157795
5/8/2010 19:44:29,5.654,7.051,9.906,30.342109,-89.157795
5/8/2010 19:44:30,6.419,6.528,9.540,30.342109,-89.157795
5/8/2010 19:44:31,7.107,4.687,10.113,30.342109,-89.157795
5/8/2010 19:44:32,6.550,7.566,10.547,30.342109,-89.157795
5/8/2010 19:44:33,7.481,7.298,9.937,30.342109,-89.157795
5/8/2010 19:44:34,6.089,6.373,9.291,30.342109,-89.157795
5/8/2010 19:44:35,6.171,5.181,10.264,30.342109,-89.157795
5/8/2010 19:44:36,6.859,6.507,9.916,30.342109,-89.157795
5/8/2010 19:44:37,7.481,7.411,10.230,30.342109,-89.157795
5/8/2010 19:44:38,5.980,7.227,9.799,30.342109,-89.157795
5/8/2010 19:44:39,5.744,5.026,9.874,30.342109,-89.157795
5/8/2010 19:44:40,5.998,6.938,9.730,30.342109,-89.157795
5/8/2010 19:44:41,7.277,4.821,10.293,30.342109,-89.157795
5/8/2010 19:44:42,5.767,6.528,10.099,30.342109,-89.157795
5/8/2010 19:44:43,5.746,5.675,9.688,30.342109,-89.157795
5/8/2010 19:44:45,6.640,5.541,10.219,30.342109,-89.157795
5/8/2010 19:44:46,6.741,5.210,9.842,30.342109,-89.157795
5/8/2010 19:44:47,7.033,7.072,10.151,30.342109,-89.157795
5/8/2010 19:44:48,6.224,8.286,10.345,30.342109,-89.157795
5/8/2010 19:44:49,5.792,6.373,9.633,30.342109,-89.157795
5/8/2010 19:44:50,5.654,6.465,10.050,30.342109,-89.157795
5/8/2010 19:44:50,5.654,6.465,10.050,30.342109,-89.157795
5/8/2010 19:44:51,6.432,5.294,9.769,30.342109,-89.157795
5/8/2010 19:44:52,6.432,5.294,9.769,30.342108,-89.157796
5/8/2010 19:44:53,6.432,5.294,9.769,30.342108,-89.157796
5/8/2010 19:44:54,6.432,5.294,9.769,30.342108,-89.157796
5/8/2010 19:44:55,6.432,5.294,9.769,30.342108,-89.157796
5/8/2010 21:18:50,11.763,13.785,16.389,30.477298,-88.336102
5/8/2010 20:33:33,0.400,0.000,0.384,30.414150,-88.791896
5/8/2010 20:33:34,0.061,0.699,0.578,30.414121,-88.791713
5/8/2010 20:33:35,0.414,1.624,1.728,30.414092,-88.791530
5/8/2010 20:33:36,0.600,0.586,0.508,30.414062,-88.791347
5/8/2010 20:33:40,0.244,0.967,0.492,30.413947,-88.790636
5/8/2010 20:34:07,0.831,1.779,0.718,30.413249,-88.786337
5/8/2010 20:34:08,0.553,1.080,0.426,30.413222,-88.786172
5/8/2010 20:34:23,0.030,0.226,0.515,30.412908,-88.784251
5/8/2010 20:34:24,0.919,4.842,1.871,30.412897,-88.784187
5/8/2010 20:34:25,0.766,1.737,0.941,30.412888,-88.784128
5/8/2010 20:35:17,0.292,0.720,0.469,30.412744,-88.783243
5/8/2010 20:35:18,0.213,0.473,0.490,30.412743,-88.783237
5/8/2010 20:35:19,0.292,0.946,0.534,30.412741,-88.783222
5/8/2010 20:36:38,0.061,0.113,0.404,30.410315,-88.768300
5/8/2010 20:36:42,0.570,0.854,0.769,30.410173,-88.767421
5/8/2010 20:36:43,0.539,1.038,0.907,30.410139,-88.767201
5/8/2010 20:37:45,0.661,0.452,0.383,30.408869,-88.759410
5/8/2010 20:37:46,0.292,1.059,0.390,30.408860,-88.759360
5/8/2010 20:37:47,0.183,0.812,0.420,30.408851,-88.759309
5/8/2010 20:37:48,0.183,0.452,0.435,30.408843,-88.759261
5/8/2010 20:37:49,0.213,0.946,0.407,30.408835,-88.759218
5/8/2010 20:37:52,0.383,0.720,0.434,30.408822,-88.759137
5/8/2010 20:37:54,0.200,0.473,0.474,30.408821,-88.759130
5/8/2010 20:37:55,0.335,0.946,0.546,30.408821,-88.759130
5/8/2010 20:37:56,0.753,1.172,0.736,30.408821,-88.759130
5/8/2010 20:37:57,0.274,0.226,0.476,30.408821,-88.759130
5/8/2010 20:37:58,0.505,1.285,0.765,30.408821,-88.759130
5/8/2010 20:37:59,1.075,0.473,0.734,30.408821,-88.759130
5/8/2010 20:38:00,0.627,1.306,0.600,30.408821,-88.759130
5/8/2010 20:38:01,0.183,0.586,0.554,30.408821,-88.759130
5/8/2010 20:38:02,0.692,0.967,0.414,30.408821,-88.759130
5/8/2010 20:38:03,0.152,0.494,0.546,30.408821,-88.759130
5/8/2010 20:38:04,0.492,0.226,0.369,30.408821,-88.759129
5/8/2010 20:38:05,0.492,0.000,0.368,30.408821,-88.759130
5/8/2010 20:38:06,0.274,0.946,0.516,30.408821,-88.759130
5/8/2010 20:38:07,0.292,0.247,0.558,30.408821,-88.759130
5/8/2010 20:38:08,1.018,0.360,0.575,30.408821,-88.759129
5/8/2010 20:38:09,0.383,0.565,0.511,30.408821,-88.759130
5/8/2010 20:38:41,0.122,0.473,0.367,30.408749,-88.758681
5/8/2010 20:39:43,0.292,1.799,0.595,30.408615,-88.757848
5/8/2010 20:39:44,0.427,1.532,0.758,30.408615,-88.757846
5/8/2010 20:39:45,0.509,0.247,0.370,30.408615,-88.757843
5/8/2010 20:39:49,0.292,0.339,0.370,30.408615,-88.757843
5/8/2010 20:40:28,0.292,0.452,0.377,30.408245,-88.755567
5/8/2010 20:40:29,0.448,1.799,0.374,30.408213,-88.755375
5/8/2010 20:40:34,0.522,0.339,0.772,30.408046,-88.754340
5/8/2010 20:40:35,0.292,0.678,0.559,30.408011,-88.754122
5/8/2010 20:40:36,0.322,0.360,0.514,30.407974,-88.753904
5/8/2010 20:40:37,0.152,1.193,0.569,30.407938,-88.753684
5/8/2010 20:40:38,0.231,0.113,0.452,30.407903,-88.753463
5/8/2010 20:40:39,0.274,0.226,0.664,30.407868,-88.753240
5/8/2010 20:40:40,0.709,1.264,0.600,30.407831,-88.753015
5/8/2010 20:43:54,1.258,1.151,0.783,30.402049,-88.717463
5/8/2010 20:43:55,1.149,1.624,1.174,30.402016,-88.717268
5/8/2010 20:43:56,1.058,1.933,1.585,30.401982,-88.717068
5/8/2010 20:43:57,0.292,1.214,0.604,30.401949,-88.716863
5/8/2010 20:45:21,0.814,1.645,1.170,30.398349,-88.694267
5/8/2010 20:45:22,1.044,1.080,1.218,30.398307,-88.693993
5/8/2010 20:45:23,0.661,1.624,0.894,30.398264,-88.693720
5/8/2010 20:46:11,0.152,0.226,0.365,30.396325,-88.681076
5/8/2010 20:47:05,0.261,0.812,0.415,30.394360,-88.668280
5/8/2010 20:47:24,0.431,1.151,0.400,30.393783,-88.664526
5/8/2010 20:47:31,0.627,0.586,0.438,30.393583,-88.663228
5/8/2010 20:47:32,0.892,1.264,0.389,30.393556,-88.663049
5/8/2010 20:48:05,0.152,0.339,0.507,30.393085,-88.659985
5/8/2010 20:48:06,0.122,0.339,0.377,30.393085,-88.659985
5/8/2010 20:48:08,0.553,1.080,0.662,30.393085,-88.659985
5/8/2010 20:48:09,0.261,0.699,0.762,30.393085,-88.659985
5/8/2010 20:48:10,0.431,1.912,0.770,30.393085,-88.659985
5/8/2010 20:48:11,0.292,0.699,0.650,30.393085,-88.659985
5/8/2010 20:48:12,0.061,1.779,0.775,30.393085,-88.659984
5/8/2010 20:48:13,1.441,3.063,0.917,30.393085,-88.659981
5/8/2010 20:48:14,1.119,2.343,0.848,30.393084,-88.659975
5/8/2010 20:48:15,1.662,1.912,0.701,30.393082,-88.659965
5/8/2010 20:48:16,1.445,1.419,0.741,30.393079,-88.659948
5/8/2010 20:48:17,0.614,2.251,0.642,30.393075,-88.659920
5/8/2010 20:48:18,1.184,1.645,0.722,30.393069,-88.659881
5/8/2010 20:48:19,1.136,2.251,0.907,30.393061,-88.659831
5/8/2010 20:48:20,2.150,3.042,1.483,30.393051,-88.659773
5/8/2010 20:48:21,3.194,5.767,2.220,30.393041,-88.659706
5/8/2010 20:48:22,3.177,8.336,2.485,30.393028,-88.659626
5/8/2010 20:48:23,3.516,5.838,2.533,30.393014,-88.659535
5/8/2010 20:48:24,3.886,6.352,2.738,30.392998,-88.659433
5/8/2010 20:48:25,4.073,8.943,2.414,30.392981,-88.659321
5/8/2010 20:48:26,4.744,8.491,2.580,30.392963,-88.659199
5/8/2010 20:48:27,3.421,10.495,1.950,30.392943,-88.659069
5/8/2010 20:48:28,2.119,4.214,1.215,30.392922,-88.658931
5/8/2010 20:48:29,1.793,6.281,1.253,30.392899,-88.658786
5/8/2010 20:48:30,2.054,3.628,1.356,30.392875,-88.658634
5/8/2010 20:48:31,2.733,3.946,1.550,30.392850,-88.658474
5/8/2010 20:48:32,2.211,3.402,1.253,30.392826,-88.658308
5/8/2010 20:48:33,2.554,3.289,0.879,30.392801,-88.658137
5/8/2010 20:48:39,1.075,1.059,1.229,30.392639,-88.657081
5/8/2010 20:48:40,1.258,4.524,4.763,30.392611,-88.656907
5/8/2010 20:48:41,2.907,4.193,5.769,30.392583,-88.656737
5/8/2010 20:48:42,2.563,7.461,7.784,30.392558,-88.656575
5/8/2010 20:48:43,1.997,5.039,4.032,30.392535,-88.656418
5/8/2010 20:48:44,0.353,1.080,0.553,30.392513,-88.656268
5/8/2010 20:50:24,0.030,0.113,0.535,30.391933,-88.652458
5/8/2010 20:50:25,0.061,1.059,0.503,30.391933,-88.652458
5/8/2010 20:50:26,0.000,0.607,0.492,30.391933,-88.652458
5/8/2010 20:50:27,0.030,0.607,0.535,30.391933,-88.652458
5/8/2010 20:50:28,0.261,0.360,0.516,30.391933,-88.652458
5/8/2010 20:50:31,0.170,0.000,0.376,30.391933,-88.652458
5/8/2010 20:50:36,0.122,0.113,0.632,30.391933,-88.652459
5/8/2010 20:50:37,0.152,0.833,0.950,30.391933,-88.652458
5/8/2010 20:51:09,0.509,0.720,0.874,30.391545,-88.649955
5/8/2010 20:51:10,0.366,0.904,0.950,30.391517,-88.649773
5/8/2010 20:51:11,0.770,0.000,0.496,30.391488,-88.649586
5/8/2010 20:51:12,0.353,1.193,1.212,30.391460,-88.649396
5/8/2010 20:51:13,0.553,0.904,0.786,30.391432,-88.649204
5/8/2010 20:52:04,0.244,1.151,0.607,30.391027,-88.646557
5/8/2010 20:52:05,0.936,1.532,0.851,30.391027,-88.646557
5/8/2010 20:52:06,0.152,0.000,0.429,30.391027,-88.646556
5/8/2010 20:52:37,0.091,0.946,0.648,30.390355,-88.642122
5/8/2010 20:52:38,0.414,0.473,0.439,30.390321,-88.641911
5/8/2010 20:52:44,0.061,0.360,0.380,30.390109,-88.640602
5/8/2010 20:52:45,0.631,1.193,0.778,30.390071,-88.640378
5/8/2010 20:52:46,0.292,0.360,0.672,30.390032,-88.640151
5/8/2010 20:52:47,0.274,0.000,0.373,30.389993,-88.639922
5/8/2010 20:52:48,0.200,0.473,0.542,30.389952,-88.639692
5/8/2010 20:52:49,0.200,0.473,0.595,30.389908,-88.639461
5/8/2010 20:52:50,0.353,0.360,0.419,30.389865,-88.639229
5/8/2010 20:52:51,0.383,0.473,0.433,30.389822,-88.638996
5/8/2010 20:52:55,0.061,0.565,0.369,30.389635,-88.638049
5/8/2010 20:53:10,0.200,1.059,0.944,30.388862,-88.634593
5/8/2010 20:53:11,0.213,1.285,1.215,30.388810,-88.634368
5/8/2010 20:53:12,0.370,1.327,1.162,30.388759,-88.634144
5/8/2010 20:53:13,0.231,0.339,0.593,30.388707,-88.633919
5/8/2010 20:53:32,0.274,0.720,0.430,30.387711,-88.629602
5/8/2010 20:53:37,0.522,1.574,0.794,30.387444,-88.628450
5/8/2010 20:53:38,0.200,0.699,0.574,30.387391,-88.628221
5/8/2010 20:53:40,0.322,1.080,0.832,30.387286,-88.627762
5/8/2010 20:53:41,0.261,1.666,1.123,30.387233,-88.627533
5/8/2010 20:53:42,0.570,0.833,0.411,30.387179,-88.627305
5/8/2010 20:54:57,0.122,0.113,0.617,30.383014,-88.609130
5/8/2010 20:54:58,0.322,0.699,0.663,30.382950,-88.608852
5/8/2010 20:57:49,0.353,1.871,0.681,30.371288,-88.558025
5/8/2010 20:57:50,0.722,1.285,0.588,30.371240,-88.557780
5/8/2010 20:57:51,0.292,0.360,0.365,30.371195,-88.557535
5/8/2010 20:57:55,0.414,1.059,0.544,30.371047,-88.556552
5/8/2010 20:57:56,0.492,0.339,0.429,30.371019,-88.556313
5/8/2010 20:57:57,0.400,0.226,0.417,30.370994,-88.556078
5/8/2010 20:58:29,0.261,0.360,0.472,30.370859,-88.549946
5/8/2010 20:58:30,0.444,2.159,0.751,30.370858,-88.549790
5/8/2010 20:58:31,0.566,2.323,1.644,30.370857,-88.549643
5/8/2010 20:58:32,1.027,3.021,0.971,30.370856,-88.549509
5/8/2010 20:58:37,0.353,1.737,1.082,30.370853,-88.549012
5/8/2010 20:58:38,0.292,1.172,1.047,30.370853,-88.548949
5/8/2010 20:58:39,0.396,2.942,1.243,30.370853,-88.548896
5/8/2010 20:58:40,0.213,2.097,0.798,30.370853,-88.548854
5/8/2010 20:59:03,0.274,0.360,0.387,30.370853,-88.548789
5/8/2010 20:59:04,0.353,0.494,0.602,30.370853,-88.548789
5/8/2010 20:59:05,1.492,1.419,0.991,30.370853,-88.548789
5/8/2010 20:59:06,0.736,0.833,0.757,30.370853,-88.548789
5/8/2010 20:59:07,0.675,2.766,0.601,30.370853,-88.548789
5/8/2010 20:59:08,0.570,0.360,0.407,30.370853,-88.548789
5/8/2010 20:59:09,0.709,0.586,0.532,30.370853,-88.548789
5/8/2010 20:59:10,1.075,0.226,0.534,30.370853,-88.548789
5/8/2010 20:59:31,0.322,0.360,0.453,30.370854,-88.548789
5/8/2010 20:59:32,0.431,0.473,0.704,30.370854,-88.548789
5/8/2010 20:59:33,0.431,0.247,0.664,30.370854,-88.548789
5/8/2010 20:59:34,0.322,0.586,0.500,30.370854,-88.548789
5/8/2010 20:59:37,0.292,0.586,0.367,30.370854,-88.548789
5/8/2010 21:00:06,0.370,1.017,0.561,30.370847,-88.547353
5/8/2010 21:00:07,0.509,1.193,0.705,30.370846,-88.547195
5/8/2010 21:00:08,0.549,3.733,2.115,30.370845,-88.547034
5/8/2010 21:00:09,1.180,3.712,4.473,30.370844,-88.546870
5/8/2010 21:00:10,0.814,3.557,2.396,30.370843,-88.546705
5/8/2010 21:00:11,0.953,2.117,1.909,30.370842,-88.546538
5/8/2010 21:00:12,0.475,2.950,3.708,30.370840,-88.546372
5/8/2010 21:00:13,0.892,2.795,2.588,30.370838,-88.546208
5/8/2010 21:00:14,1.340,2.661,2.300,30.370838,-88.546047
5/8/2010 21:00:15,2.502,3.402,3.337,30.370838,-88.545888
5/8/2010 21:00:16,0.949,1.264,1.863,30.370839,-88.545731
5/8/2010 21:00:17,0.535,0.904,1.133,30.370839,-88.545574
5/8/2010 21:00:18,0.061,1.059,0.636,30.370838,-88.545412
5/8/2010 21:01:29,0.383,1.285,1.103,30.372995,-88.534784
5/8/2010 21:01:30,1.567,1.871,2.200,30.372995,-88.534784
5/8/2010 21:01:31,1.536,2.929,2.712,30.372995,-88.534784
5/8/2010 21:01:32,1.254,3.352,1.945,30.372994,-88.534784
5/8/2010 21:01:33,1.349,2.230,1.099,30.372994,-88.534784
5/8/2010 21:01:34,0.383,1.080,0.453,30.372994,-88.534784
5/8/2010 21:03:02,0.457,0.452,0.523,30.377940,-88.526988
5/8/2010 21:03:03,1.292,2.724,1.127,30.378040,-88.526830
5/8/2010 21:03:04,2.424,2.837,2.090,30.378135,-88.526677
5/8/2010 21:03:05,3.272,2.724,1.565,30.378225,-88.526535
5/8/2010 21:03:28,0.200,0.113,0.366,30.379152,-88.525067
5/8/2010 21:03:29,0.061,0.586,0.449,30.379216,-88.524965
5/8/2010 21:03:30,0.231,0.586,0.390,30.379285,-88.524856
5/8/2010 21:03:32,0.122,0.904,0.476,30.379433,-88.524621
5/8/2010 21:03:33,0.152,0.226,0.428,30.379513,-88.524495
5/8/2010 21:03:34,0.139,0.339,0.413,30.379598,-88.524365
5/8/2010 21:03:35,0.261,0.113,0.368,30.379685,-88.524228
5/8/2010 21:03:44,0.461,0.360,0.467,30.380576,-88.522818
5/8/2010 21:03:45,0.957,1.461,1.265,30.380686,-88.522645
5/8/2010 21:03:46,0.966,1.038,1.707,30.380795,-88.522471
5/8/2010 21:03:47,1.445,3.105,1.820,30.380905,-88.522297
5/8/2010 21:03:48,1.492,0.946,0.842,30.381016,-88.522123
5/8/2010 21:03:56,0.200,1.080,0.674,30.381939,-88.520666
5/8/2010 21:03:57,0.292,0.833,0.549,30.382059,-88.520474
5/8/2010 21:04:52,0.274,1.059,0.962,30.388907,-88.509769
5/8/2010 21:04:53,1.088,1.419,0.897,30.389010,-88.509606
5/8/2010 21:04:54,0.183,0.678,0.568,30.389111,-88.509447
5/8/2010 21:04:55,0.736,1.398,0.863,30.389211,-88.509288
5/8/2010 21:04:56,0.353,1.214,0.378,30.389313,-88.509128
5/8/2010 21:05:00,0.292,0.678,0.421,30.389727,-88.508468
5/8/2010 21:05:01,0.631,1.101,0.624,30.389827,-88.508308